Regional Weather Roundup
Issued by NWS

Home | Current Version | Previous Version | Text Only | Print | Product List | Glossary Off
Versions: 1 2 3 4 5 6 7 8 9 10 11 12 13 14 15 16 17 18 19 20 21 22 23 24 25 26 27 28 29 30 31 32 33 34 35 36 37 38 39 40 41 42 43 44 45 46 47 48 49 50

000
ASUS45 KSLC 042310
RWRUT

UTAH REGIONAL WEATHER ROUNDUP
NATIONAL WEATHER SERVICE SALT LAKE CITY UT
500 PM MDT SAT JUL 04 2015

UTZ001>011-023>025-050000-

NORTHERN UTAH

CITY           SKY/WX    TMP DP  RH WIND       PRES   REMARKS
BRIGHAM CITY   MOSUNNY   97  31   9 SE3       29.86F HX  91
HILL AFB       MOSUNNY   94  47  20 W8        29.92F HX  91
LOGAN          SUNNY     96  40  14 SW8       29.87F HX  92
OGDEN          MOSUNNY   96  42  15 VRB7      29.88F HX  92
PROVO AIRPORT  PTSUNNY   95  46  18 CALM      29.89F HX  91
SALT LAKE CITY PTSUNNY   99  50  19 NW9       29.85F HX  96
VERNAL         PTSUNNY   91  43  18 SW12G17   29.94F
WENDOVER       CLOUDY    88  46  23 W23G30    29.90S
HEBER CITY     CLOUDY    95  36  12 SW7       29.98F HX  90
WEST JORDAN    SUNNY     93  46  20 N3        29.90S

$$

UTZ012>022-026-027-050000-

SOUTHERN/CENTRAL UTAH

CITY           SKY/WX    TMP DP  RH WIND       PRES   REMARKS
BLANDING       MOSUNNY   89  46  23 SW6       30.09F
BRYCE CANYON   CLOUDY    75  51  43 W10       30.22F
CEDAR CITY     CLOUDY    80  47  31 VRB3      30.09F
DELTA          CLOUDY    83  49  30 S26G33    29.97R
HANKSVILLE     MOSUNNY   97  43  15 W6        29.89F HX  92
MILFORD        CLOUDY    83  50  31 S20       30.02S
MOAB/CYNLANDS  SUNNY     96  49  20 VRB3      29.87F HX  93
PRICE          CLOUDY    89  45  21 S20       30.02F
ST GEORGE      CLOUDY    91  50  24 W6        29.91F
KANAB          CLOUDY    82  52  34 SW9       30.09F

$$

REGIONAL REPORTS     COLORADO/ARIZONA

CITY           SKY/WX    TMP DP  RH WIND       PRES   REMARKS
CRAIG, CO      CLOUDY    74  54  49 SW9       30.09R
GRAND JUNCTION PTSUNNY   92  49  22 SW9       29.91F
RIFLE          PTSUNNY   91  47  21 MISG      29.96F
MONTROSE       PTSUNNY   84  47  27 SW13      30.04R
CORTEZ         MOSUNNY   83  53  35 W7        30.04F
PAGE, AZ       PTSUNNY   91  52  26 SW7       29.95F
GRAND CANYON   PTSUNNY   80  50  34 SW12G18   30.17F
KINGMAN        CLOUDY    89  50  26 W6        29.96F
FLAGSTAFF      CLOUDY    67  53  61 NW12G22   30.23R

$$

REGIONAL REPORTS    NEVADA/IDAHO/WYOMING

CITY           SKY/WX    TMP DP  RH WIND       PRES   REMARKS
LAS VEGAS, NV  PTSUNNY  100  47  16 S14       29.78F HX  96
ELY            CLOUDY    82  42  24 W16G25    30.11S
ELKO           CLOUDY    80  52  37 W13       30.06R
POCATELLO, ID  SUNNY     94  37  13 SW14      29.88F
BURLEY         PTSUNNY   91  37  15 W7        29.86F
EVANSTON, WY   PTSUNNY   79  51  37 E9        30.11F
ROCK SPRINGS   PTSUNNY   85  40  20 W20G28    30.05F
KEMMERER       MOSUNNY  N/A N/A N/A SW16G22   30.12S

$$



USA.gov is the U.S. government's official web portal to all federal, state and local government web resources and services.